• Em Portugal
  • Lista de países
  • Para 7 dias
  • Temperatura da água
  • Mapas de satélite
  • Mapa do tempo
  • Widgets de tempo
  • user-avatar
    Iniciar Sessão

    Previsão horária em Abrantes

    Hoje, 29 Março, Quarta-feira

    Tempo Temperatura Precipitação Vento Pressão Humidade
    00:00 +10°C° 0 mm 1 m/s 762 mmHg 88%
    01:00 +10°C° 0 mm 1 m/s 762 mmHg 88%
    02:00 +10°C° 0 mm 1 m/s 761 mmHg 87%
    03:00 +10°C° 0 mm 1 m/s 761 mmHg 87%
    04:00 +9°C° 0 mm 2 m/s 761 mmHg 87%
    05:00 +9°C° 0 mm 2 m/s 761 mmHg 87%
    06:00 +12°C° 0 mm 2 m/s 761 mmHg 81%
    07:00 +14°C° 0 mm 2 m/s 761 mmHg 76%
    08:00 +16°C° 0 mm 3 m/s 761 mmHg 70%
    09:00 +18°C° 0 mm 3 m/s 761 mmHg 64%
    10:00 +19°C° 0 mm 3 m/s 761 mmHg 59%
    11:00 +21°C° 0 mm 3 m/s 761 mmHg 53%
    12:00 +22°C° 0 mm 3 m/s 760 mmHg 51%
    13:00 +23°C° 0 mm 2 m/s 760 mmHg 49%
    14:00 +24°C° 0 mm 2 m/s 759 mmHg 47%
    15:00 +23°C° 0 mm 2 m/s 759 mmHg 53%
    16:00 +22°C° 0 mm 1 m/s 759 mmHg 60%
    17:00 +21°C° 0 mm 1 m/s 758 mmHg 66%
    18:00 +19°C° 0 mm 1 m/s 759 mmHg 71%
    19:00 +15°C° 0 mm 1 m/s 759 mmHg 77%
    20:00 +13°C° 0 mm 1 m/s 759 mmHg 82%
    21:00 +12°C° 0 mm 1 m/s 759 mmHg 83%
    22:00 +12°C° 0 mm 1 m/s 759 mmHg 84%
    23:00 +10°C° 0 mm 0 m/s 759 mmHg 85%

    Amanhã, 30 Março, Quinta-feira

    Tempo Temperatura Precipitação Vento Pressão Humidade
    00:00 +10°C° 0 mm 0 m/s 758 mmHg 84%
    01:00 +10°C° 0 mm 0 m/s 758 mmHg 84%
    02:00 +10°C° 0 mm 0 m/s 758 mmHg 84%
    03:00 +11°C° 0 mm 1 m/s 757 mmHg 83%
    04:00 +12°C° 0 mm 1 m/s 757 mmHg 82%
    05:00 +12°C° 0 mm 1 m/s 757 mmHg 81%
    06:00 +14°C° 0 mm 1 m/s 757 mmHg 75%
    07:00 +16°C° 0 mm 1 m/s 757 mmHg 69%
    08:00 +18°C° 0 mm 2 m/s 758 mmHg 64%
    09:00 +19°C° 0 mm 2 m/s 757 mmHg 60%
    10:00 +21°C° 0 mm 3 m/s 757 mmHg 56%
    11:00 +22°C° 0 mm 3 m/s 757 mmHg 52%
    12:00 +22°C° 0 mm 4 m/s 757 mmHg 52%
    13:00 +23°C° 0 mm 4 m/s 757 mmHg 51%
    14:00 +23°C° 0 mm 5 m/s 756 mmHg 50%
    15:00 +21°C° 0,3 mm 5 m/s 756 mmHg 58%
    16:00 +19°C° 0,3 mm 4 m/s 756 mmHg 66%
    17:00 +18°C° 0,3 mm 4 m/s 756 mmHg 74%
    18:00 +16°C° 0,3 mm 3 m/s 757 mmHg 80%
    19:00 +14°C° 0,3 mm 3 m/s 757 mmHg 86%
    20:00 +14°C° 0,3 mm 2 m/s 758 mmHg 92%
    21:00 +14°C° 0 mm 2 m/s 758 mmHg 94%
    22:00 +13°C° 0 mm 2 m/s 758 mmHg 95%
    23:00 +13°C° 0 mm 2 m/s 758 mmHg 97%

    Depois de amanhã, 31 Março, Sexta-feira

    Tempo Temperatura Precipitação Vento Pressão Humidade
    00:00 +13°C° 0 mm 2 m/s 758 mmHg 97%
    01:00 +12°C° 0 mm 2 m/s 758 mmHg 97%
    02:00 +12°C° 0 mm 1 m/s 758 mmHg 97%
    03:00 +11°C° 0 mm 1 m/s 758 mmHg 97%
    04:00 +10°C° 0 mm 1 m/s 758 mmHg 97%
    05:00 +10°C° 0 mm 1 m/s 758 mmHg 97%
    06:00 +11°C° 0 mm 1 m/s 759 mmHg 92%
    07:00 +13°C° 0 mm 2 m/s 759 mmHg 86%
    08:00 +15°C° 0 mm 2 m/s 760 mmHg 81%
    09:00 +16°C° 0 mm 3 m/s 760 mmHg 74%
    10:00 +17°C° 0 mm 4 m/s 760 mmHg 67%
    11:00 +18°C° 0 mm 4 m/s 760 mmHg 60%
    12:00 +17°C° 0 mm 5 m/s 759 mmHg 59%
    13:00 +19°C° 0 mm 5 m/s 759 mmHg 58%
    14:00 +19°C° 0 mm 6 m/s 759 mmHg 57%
    15:00 +17°C° 0 mm 6 m/s 759 mmHg 63%
    16:00 +16°C° 0 mm 5 m/s 759 mmHg 68%
    17:00 +15°C° 0 mm 5 m/s 759 mmHg 74%
    18:00 +14°C° 0 mm 4 m/s 759 mmHg 79%
    19:00 +13°C° 0 mm 4 m/s 760 mmHg 85%
    20:00 +12°C° 0 mm 3 m/s 760 mmHg 90%
    21:00 +12°C° 0 mm 3 m/s 760 mmHg 91%
    22:00 +11°C° 0 mm 3 m/s 760 mmHg 92%
    23:00 +12°C° 0 mm 2 m/s 761 mmHg 93%

    1 Abril, Sábado

    Tempo Temperatura Precipitação Vento Pressão Humidade
    00:00 +12°C° 0 mm 2 m/s 760 mmHg 93%
    01:00 +10°C° 0 mm 2 m/s 760 mmHg 93%
    02:00 +10°C° 0 mm 2 m/s 760 mmHg 93%
    03:00 +9°C° 0 mm 2 m/s 760 mmHg 94%
    04:00 +9°C° 0 mm 2 m/s 760 mmHg 94%
    05:00 +9°C° 0 mm 2 m/s 760 mmHg 94%
    06:00 +10°C° 0 mm 2 m/s 761 mmHg 87%
    07:00 +12°C° 0 mm 3 m/s 761 mmHg 81%
    08:00 +13°C° 0 mm 3 m/s 762 mmHg 74%
    09:00 +16°C° 0 mm 3 m/s 762 mmHg 68%
    10:00 +17°C° 0 mm 4 m/s 762 mmHg 62%
    11:00 +18°C° 0 mm 4 m/s 762 mmHg 56%
    12:00 +18°C° 0 mm 4 m/s 761 mmHg 55%
    13:00 +19°C° 0 mm 4 m/s 761 mmHg 54%
    14:00 +19°C° 0 mm 4 m/s 760 mmHg 53%
    15:00 +18°C° 0 mm 4 m/s 760 mmHg 58%
    16:00 +17°C° 0 mm 4 m/s 760 mmHg 63%
    17:00 +15°C° 0 mm 4 m/s 760 mmHg 68%
    18:00 +14°C° 0 mm 3 m/s 760 mmHg 74%
    19:00 +12°C° 0 mm 3 m/s 761 mmHg 80%
    20:00 +10°C° 0 mm 3 m/s 761 mmHg 85%
    21:00 +10°C° 0 mm 3 m/s 761 mmHg 87%
    22:00 +9°C° 0 mm 3 m/s 761 mmHg 89%
    23:00 +9°C° 0 mm 2 m/s 760 mmHg 91%

    2 Abril, Domingo

    Tempo Temperatura Precipitação Vento Pressão Humidade
    00:00 +8°C° 0 mm 2 m/s 760 mmHg 91%
    01:00 +8°C° 0 mm 2 m/s 760 mmHg 91%
    02:00 +8°C° 0 mm 2 m/s 759 mmHg 91%
    03:00 +8°C° 0 mm 2 m/s 759 mmHg 90%
    04:00 +7°C° 0 mm 2 m/s 759 mmHg 90%
    05:00 +7°C° 0 mm 2 m/s 759 mmHg 89%
    06:00 +9°C° 0 mm 2 m/s 759 mmHg 80%
    07:00 +13°C° 0 mm 2 m/s 760 mmHg 72%
    08:00 +15°C° 0 mm 2 m/s 760 mmHg 63%
    09:00 +17°C° 0 mm 3 m/s 760 mmHg 57%
    10:00 +19°C° 0 mm 3 m/s 760 mmHg 51%
    11:00 +21°C° 0 mm 3 m/s 759 mmHg 46%
    12:00 +21°C° 0 mm 3 m/s 759 mmHg 44%
    13:00 +22°C° 0 mm 3 m/s 758 mmHg 42%
    14:00 +24°C° 0 mm 3 m/s 758 mmHg 41%
    15:00 +23°C° 0 mm 2 m/s 758 mmHg 47%
    16:00 +21°C° 0 mm 2 m/s 758 mmHg 53%
    17:00 +20°C° 0 mm 2 m/s 758 mmHg 59%
    18:00 +17°C° 0 mm 2 m/s 758 mmHg 63%
    19:00 +15°C° 0 mm 2 m/s 759 mmHg 66%
    20:00 +13°C° 0 mm 2 m/s 759 mmHg 69%
    21:00 +13°C° 0 mm 2 m/s 759 mmHg 69%
    22:00 +13°C° 0 mm 2 m/s 759 mmHg 69%
    23:00 +12°C° 0 mm 2 m/s 759 mmHg 69%

    3 Abril, Segunda-feira

    Tempo Temperatura Precipitação Vento Pressão Humidade
    00:00 +12°C° 0 mm 2 m/s 759 mmHg 69%
    01:00 +10°C° 0 mm 2 m/s 759 mmHg 69%
    02:00 +10°C° 0 mm 2 m/s 759 mmHg 69%
    03:00 +10°C° 0 mm 2 m/s 759 mmHg 67%
    04:00 +10°C° 0 mm 2 m/s 759 mmHg 66%
    05:00 +10°C° 0 mm 2 m/s 759 mmHg 64%
    06:00 +13°C° 0 mm 2 m/s 759 mmHg 61%
    07:00 +14°C° 0 mm 3 m/s 760 mmHg 57%
    08:00 +18°C° 0 mm 3 m/s 760 mmHg 54%
    09:00 +19°C° 0 mm 3 m/s 760 mmHg 50%
    10:00 +21°C° 0 mm 3 m/s 760 mmHg 46%
    11:00 +24°C° 0 mm 3 m/s 760 mmHg 43%
    12:00 +24°C° 0 mm 3 m/s 759 mmHg 42%
    13:00 +25°C° 0 mm 3 m/s 759 mmHg 41%
    14:00 +25°C° 0 mm 3 m/s 759 mmHg 40%
    15:00 +24°C° 0 mm 2 m/s 759 mmHg 47%
    16:00 +23°C° 0 mm 2 m/s 759 mmHg 54%
    17:00 +21°C° 0 mm 2 m/s 759 mmHg 60%
    18:00 +19°C° 0 mm 2 m/s 759 mmHg 63%
    19:00 +17°C° 0 mm 2 m/s 759 mmHg 66%
    20:00 +15°C° 0 mm 2 m/s 759 mmHg 69%
    21:00 +14°C° 0 mm 2 m/s 759 mmHg 70%
    22:00 +14°C° 0 mm 2 m/s 759 mmHg 70%
    23:00 +14°C° 0 mm 2 m/s 759 mmHg 71%
    Mostrar mais